Starlink 11736

operational
NORAD ID: 64317 Int'l Des: 2025-124 Owner: SPXS Country: US Constellation: starlink
LEOCIRCULAR

Starlink 11736について

説明を読み込み中...

リアルタイム位置

3D地球を読み込み中...

次回通過

高度履歴

Altitude vs Time

uPlot chart will show altitude changes over time

軌道要素

1 64317U 25124A 26095.09290553 .00244994 00000-0 18545-2 0 9997
2 64317 43.0002 230.3609 0000822 60.8054 299.2896 15.70873035 46981
Epoch: Apr 5, 2026 • Age: 12 hours

現在のステータス

高度 365.1 km
速度 7.69 km/s
衛星直下点 -32.87°S, 136.69°E
打ち上げ日 Jun 10, 2025
運用期間 0.8 years
タイプ internet

技術仕様

分類 Payload
質量 960.00 kg
乾燥質量 910.00 kg
総質量 960.00 kg
長さ 0.30 m
直径 4.10 m
スパン 29.00 m
形状 Box + pan
製造者 SPXS
バスタイプ Starlink V2MD
フェーズステータス In Orbit
所有者/国 SPXS/US

大規模コンステレーション

Loading constellations...